Location: 22
(39.7117°N, 89.5929°W)
Time: 09:29:42
(UTC-06:00)

SR - All Passes

Search period start: 29 January 2023 00:00
Search period end: 08 February 2023 00:00
Orbit: 581 x 870 km, 66.7° (Epoch: 28 January)

Date Brightness Start Highest point End Pass type
(mag) Time Alt. Az. Time Alt. Az. Time Alt. Az.
29 Jan - 01:33:59 10° NW 01:37:41 29° WSW 01:41:22 10° S night (unlit)
29 Jan - 14:20:53 10° SSE 14:25:01 23° ESE 14:28:55 10° ENE daylight
29 Jan - 16:01:45 10° SW 16:06:47 44° WNW 16:11:28 10° NNE daylight
29 Jan - 23:03:00 10° NNE 23:04:56 13° NE 23:06:49 10° ENE night (unlit)
30 Jan - 00:43:09 10° NNW 00:47:25 73° WSW 00:51:38 10° SSE night (unlit)
30 Jan - 13:34:09 10° ESE 13:34:54 10° ESE 13:35:39 10° E daylight
30 Jan - 15:10:57 10° SSW 15:16:17 90° ESE 15:21:13 10° NNE daylight
30 Jan - 16:56:15 10° WNW 16:58:50 14° NW 17:01:21 10° NNW daylight
30 Jan - 23:52:49 10° NNW 23:56:58 47° ENE 00:01:03 10° SE night (unlit)
31 Jan - 01:36:09 10° WNW 01:38:27 14° WSW 01:40:46 10° SW night (unlit)
31 Jan - 14:20:54 10° S 14:25:55 43° ESE 14:30:35 10° NE daylight
31 Jan - 16:03:44 10° WSW 16:08:00 25° NW 16:12:02 10° N daylight
31 Jan - 23:02:55 10° N 23:06:18 22° NE 23:09:38 10° ESE night (unlit)
01 Feb - 00:44:28 10° NW 00:48:19 34° WSW 00:52:08 10° S night (unlit)
01 Feb - 13:31:49 10° SSE 13:35:40 20° ESE 13:39:19 10° ENE daylight
01 Feb - 15:12:16 10° SW 15:17:22 49° WNW 15:22:05 10° NNE daylight
01 Feb - 22:14:02 10° NNE 22:15:25 11° NE 22:16:48 10° ENE night (unlit)
01 Feb - 23:53:44 10° NNW 23:58:01 84° WSW 00:02:15 10° SSE night (unlit)
02 Feb - 14:21:35 10° SSW 14:26:53 81° ESE 14:31:47 10° NNE daylight
02 Feb - 16:06:28 10° W 16:09:22 15° NW 16:12:09 10° N daylight
02 Feb - 23:03:28 10° NNW 23:07:31 41° NE 23:11:32 10° SE night (unlit)
03 Feb - 00:46:25 10° WNW 00:49:05 16° WSW 00:51:46 10° SSW night (unlit)
03 Feb - 13:31:40 10° S 13:36:32 38° ESE 13:41:04 10° NE daylight
03 Feb - 15:14:09 10° WSW 15:18:34 28° NW 15:22:42 10° N daylight
03 Feb - 22:13:39 10° N 22:16:50 20° NE 22:19:58 10° E night (unlit)
03 Feb - 23:54:58 10° NW 23:58:55 39° WSW 00:02:53 10° S night (unlit)
04 Feb - 12:42:49 10° SSE 12:46:18 18° ESE 12:49:38 10° ENE daylight
04 Feb - 14:22:49 10° SW 14:27:57 55° WNW 14:32:42 10° NNE daylight
04 Feb - 21:25:30 10° NE 21:25:54 10° NE 21:26:19 10° NE night (unlit)
04 Feb - 23:04:19 10° NNW 23:08:35 85° ENE 23:12:50 10° SSE night (unlit)
05 Feb - 13:32:14 10° SSW 13:37:29 72° ESE 13:42:20 10° NNE daylight
05 Feb - 15:16:42 10° W 15:19:53 16° NW 15:22:55 10° N daylight
05 Feb - 22:14:06 10° NNW 22:18:03 36° NE 22:21:59 10° ESE night (unlit)
05 Feb - 23:56:44 10° WNW 23:59:43 19° WSW 00:02:43 10° SSW night (unlit)
06 Feb - 12:42:26 10° S 12:47:09 33° ESE 12:51:32 10° NE daylight
06 Feb - 14:24:34 10° WSW 14:29:07 30° NW 14:33:21 10° N daylight
06 Feb - 21:24:23 10° N 21:27:20 18° NE 21:30:15 10° E night (unlit)
06 Feb - 23:05:28 10° NW 23:09:31 44° WSW 23:13:34 10° S night (unlit)
07 Feb - 11:53:51 10° SE 11:56:56 16° ESE 11:59:53 10° ENE daylight
07 Feb - 13:33:21 10° SW 13:38:31 62° WNW 13:43:17 10° NNE daylight
07 Feb - 22:14:53 10° NNW 22:19:08 74° ENE 22:23:23 10° SE night (unlit)
